Index of /20260416/WXO-DD/model_rdps/10km/12/052
Name Last modified Size Description
Parent Directory -
20260416T12Z_MSC_RDPS_AbsoluteVorticity_IsbL-0250_RLatLon0.09_PT052H.grib2 2026-04-16 14:55 601K
20260416T12Z_MSC_RDPS_AbsoluteVorticity_IsbL-0500_RLatLon0.09_PT052H.grib2 2026-04-16 14:55 552K
20260416T12Z_MSC_RDPS_AbsoluteVorticity_IsbL-0700_RLatLon0.09_PT052H.grib2 2026-04-16 14:55 738K
20260416T12Z_MSC_RDPS_AbsoluteVorticity_IsbL-0850_RLatLon0.09_PT052H.grib2 2026-04-16 14:55 784K
20260416T12Z_MSC_RDPS_AirTemp_AGL-120m_RLatLon0.09_PT052H.grib2 2026-04-16 14:55 384K
20260416T12Z_MSC_RDPS_AirTemp_AGL-2m_RLatLon0.09_PT052H.grib2 2026-04-16 14:55 645K
20260416T12Z_MSC_RDPS_AirTemp_AGL-40m_RLatLon0.09_PT052H.grib2 2026-04-16 14:55 397K
20260416T12Z_MSC_RDPS_AirTemp_AGL-80m_RLatLon0.09_PT052H.grib2 2026-04-16 14:55 390K
20260416T12Z_MSC_RDPS_AirTemp_IsbL-0001_RLatLon0.09_PT052H.grib2 2026-04-16 14:55 324K
20260416T12Z_MSC_RDPS_AirTemp_IsbL-0005_RLatLon0.09_PT052H.grib2 2026-04-16 14:55 336K
20260416T12Z_MSC_RDPS_AirTemp_IsbL-0010_RLatLon0.09_PT052H.grib2 2026-04-16 14:55 344K
20260416T12Z_MSC_RDPS_AirTemp_IsbL-0020_RLatLon0.09_PT052H.grib2 2026-04-16 14:55 324K
20260416T12Z_MSC_RDPS_AirTemp_IsbL-0030_RLatLon0.09_PT052H.grib2 2026-04-16 14:55 380K
20260416T12Z_MSC_RDPS_AirTemp_IsbL-0050_RLatLon0.09_PT052H.grib2 2026-04-16 14:55 324K
20260416T12Z_MSC_RDPS_AirTemp_IsbL-0100_RLatLon0.09_PT052H.grib2 2026-04-16 14:55 420K
20260416T12Z_MSC_RDPS_AirTemp_IsbL-0150_RLatLon0.09_PT052H.grib2 2026-04-16 14:55 406K
20260416T12Z_MSC_RDPS_AirTemp_IsbL-0175_RLatLon0.09_PT052H.grib2 2026-04-16 14:55 405K
20260416T12Z_MSC_RDPS_AirTemp_IsbL-0200_RLatLon0.09_PT052H.grib2 2026-04-16 14:55 407K
20260416T12Z_MSC_RDPS_AirTemp_IsbL-0225_RLatLon0.09_PT052H.grib2 2026-04-16 14:55 409K
20260416T12Z_MSC_RDPS_AirTemp_IsbL-0250_RLatLon0.09_PT052H.grib2 2026-04-16 14:55 418K
20260416T12Z_MSC_RDPS_AirTemp_IsbL-0275_RLatLon0.09_PT052H.grib2 2026-04-16 14:55 399K
20260416T12Z_MSC_RDPS_AirTemp_IsbL-0300_RLatLon0.09_PT052H.grib2 2026-04-16 14:55 403K
20260416T12Z_MSC_RDPS_AirTemp_IsbL-0350_RLatLon0.09_PT052H.grib2 2026-04-16 14:55 413K
20260416T12Z_MSC_RDPS_AirTemp_IsbL-0400_RLatLon0.09_PT052H.grib2 2026-04-16 14:55 412K
20260416T12Z_MSC_RDPS_AirTemp_IsbL-0450_RLatLon0.09_PT052H.grib2 2026-04-16 14:55 385K
20260416T12Z_MSC_RDPS_AirTemp_IsbL-0500_RLatLon0.09_PT052H.grib2 2026-04-16 14:55 395K
20260416T12Z_MSC_RDPS_AirTemp_IsbL-0550_RLatLon0.09_PT052H.grib2 2026-04-16 14:55 414K
20260416T12Z_MSC_RDPS_AirTemp_IsbL-0600_RLatLon0.09_PT052H.grib2 2026-04-16 14:55 431K
20260416T12Z_MSC_RDPS_AirTemp_IsbL-0650_RLatLon0.09_PT052H.grib2 2026-04-16 14:55 448K
20260416T12Z_MSC_RDPS_AirTemp_IsbL-0700_RLatLon0.09_PT052H.grib2 2026-04-16 14:55 474K
20260416T12Z_MSC_RDPS_AirTemp_IsbL-0750_RLatLon0.09_PT052H.grib2 2026-04-16 14:55 518K
20260416T12Z_MSC_RDPS_AirTemp_IsbL-0800_RLatLon0.09_PT052H.grib2 2026-04-16 14:55 459K
20260416T12Z_MSC_RDPS_AirTemp_IsbL-0850_RLatLon0.09_PT052H.grib2 2026-04-16 14:55 512K
20260416T12Z_MSC_RDPS_AirTemp_IsbL-0875_RLatLon0.09_PT052H.grib2 2026-04-16 14:55 529K
20260416T12Z_MSC_RDPS_AirTemp_IsbL-0900_RLatLon0.09_PT052H.grib2 2026-04-16 14:55 535K
20260416T12Z_MSC_RDPS_AirTemp_IsbL-0925_RLatLon0.09_PT052H.grib2 2026-04-16 14:55 533K
20260416T12Z_MSC_RDPS_AirTemp_IsbL-0950_RLatLon0.09_PT052H.grib2 2026-04-16 14:55 532K
20260416T12Z_MSC_RDPS_AirTemp_IsbL-0970_RLatLon0.09_PT052H.grib2 2026-04-16 14:55 528K
20260416T12Z_MSC_RDPS_AirTemp_IsbL-0985_RLatLon0.09_PT052H.grib2 2026-04-16 14:55 517K
20260416T12Z_MSC_RDPS_AirTemp_IsbL-1000_RLatLon0.09_PT052H.grib2 2026-04-16 14:55 514K
20260416T12Z_MSC_RDPS_AirTemp_IsbL-1015_RLatLon0.09_PT052H.grib2 2026-04-16 14:55 512K
20260416T12Z_MSC_RDPS_Albedo_Sfc_RLatLon0.09_PT052H.grib2 2026-04-16 14:55 170K
20260416T12Z_MSC_RDPS_CAPE_Sfc_RLatLon0.09_PT052H.grib2 2026-04-16 14:55 1.7M
20260416T12Z_MSC_RDPS_CIN_Sfc_RLatLon0.09_PT052H.grib2 2026-04-16 14:55 1.1M
20260416T12Z_MSC_RDPS_CloudWater_EAtm_RLatLon0.09_PT052H.grib2 2026-04-16 14:55 210K
20260416T12Z_MSC_RDPS_ConvectivePrecip-Accum_Sfc_RLatLon0.09_PT052H.grib2 2026-04-16 14:55 1.1M
20260416T12Z_MSC_RDPS_DewPointDepression_AGL-2m_RLatLon0.09_PT052H.grib2 2026-04-16 14:55 414K
20260416T12Z_MSC_RDPS_DewPointDepression_IsbL-0001_RLatLon0.09_PT052H.grib2 2026-04-16 14:55 193
20260416T12Z_MSC_RDPS_DewPointDepression_IsbL-0005_RLatLon0.09_PT052H.grib2 2026-04-16 14:55 193
20260416T12Z_MSC_RDPS_DewPointDepression_IsbL-0010_RLatLon0.09_PT052H.grib2 2026-04-16 14:55 193
20260416T12Z_MSC_RDPS_DewPointDepression_IsbL-0020_RLatLon0.09_PT052H.grib2 2026-04-16 14:55 193
20260416T12Z_MSC_RDPS_DewPointDepression_IsbL-0030_RLatLon0.09_PT052H.grib2 2026-04-16 14:55 2.1K
20260416T12Z_MSC_RDPS_DewPointDepression_IsbL-0050_RLatLon0.09_PT052H.grib2 2026-04-16 14:55 104K
20260416T12Z_MSC_RDPS_DewPointDepression_IsbL-0100_RLatLon0.09_PT052H.grib2 2026-04-16 14:55 123K
20260416T12Z_MSC_RDPS_DewPointDepression_IsbL-0150_RLatLon0.09_PT052H.grib2 2026-04-16 14:55 138K
20260416T12Z_MSC_RDPS_DewPointDepression_IsbL-0175_RLatLon0.09_PT052H.grib2 2026-04-16 14:55 173K
20260416T12Z_MSC_RDPS_DewPointDepression_IsbL-0200_RLatLon0.09_PT052H.grib2 2026-04-16 14:55 203K
20260416T12Z_MSC_RDPS_DewPointDepression_IsbL-0225_RLatLon0.09_PT052H.grib2 2026-04-16 14:55 241K
20260416T12Z_MSC_RDPS_DewPointDepression_IsbL-0250_RLatLon0.09_PT052H.grib2 2026-04-16 14:55 284K
20260416T12Z_MSC_RDPS_DewPointDepression_IsbL-0275_RLatLon0.09_PT052H.grib2 2026-04-16 14:55 292K
20260416T12Z_MSC_RDPS_DewPointDepression_IsbL-0300_RLatLon0.09_PT052H.grib2 2026-04-16 14:55 307K
20260416T12Z_MSC_RDPS_DewPointDepression_IsbL-0350_RLatLon0.09_PT052H.grib2 2026-04-16 14:55 314K
20260416T12Z_MSC_RDPS_DewPointDepression_IsbL-0400_RLatLon0.09_PT052H.grib2 2026-04-16 14:55 327K
20260416T12Z_MSC_RDPS_DewPointDepression_IsbL-0450_RLatLon0.09_PT052H.grib2 2026-04-16 14:55 333K
20260416T12Z_MSC_RDPS_DewPointDepression_IsbL-0500_RLatLon0.09_PT052H.grib2 2026-04-16 14:55 336K
20260416T12Z_MSC_RDPS_DewPointDepression_IsbL-0550_RLatLon0.09_PT052H.grib2 2026-04-16 14:55 344K
20260416T12Z_MSC_RDPS_DewPointDepression_IsbL-0600_RLatLon0.09_PT052H.grib2 2026-04-16 14:55 358K
20260416T12Z_MSC_RDPS_DewPointDepression_IsbL-0650_RLatLon0.09_PT052H.grib2 2026-04-16 14:55 369K
20260416T12Z_MSC_RDPS_DewPointDepression_IsbL-0700_RLatLon0.09_PT052H.grib2 2026-04-16 14:55 386K
20260416T12Z_MSC_RDPS_DewPointDepression_IsbL-0750_RLatLon0.09_PT052H.grib2 2026-04-16 14:55 410K
20260416T12Z_MSC_RDPS_DewPointDepression_IsbL-0800_RLatLon0.09_PT052H.grib2 2026-04-16 14:55 447K
20260416T12Z_MSC_RDPS_DewPointDepression_IsbL-0850_RLatLon0.09_PT052H.grib2 2026-04-16 14:55 473K
20260416T12Z_MSC_RDPS_DewPointDepression_IsbL-0875_RLatLon0.09_PT052H.grib2 2026-04-16 14:55 470K
20260416T12Z_MSC_RDPS_DewPointDepression_IsbL-0900_RLatLon0.09_PT052H.grib2 2026-04-16 14:55 460K
20260416T12Z_MSC_RDPS_DewPointDepression_IsbL-0925_RLatLon0.09_PT052H.grib2 2026-04-16 14:55 448K
20260416T12Z_MSC_RDPS_DewPointDepression_IsbL-0950_RLatLon0.09_PT052H.grib2 2026-04-16 14:55 444K
20260416T12Z_MSC_RDPS_DewPointDepression_IsbL-0970_RLatLon0.09_PT052H.grib2 2026-04-16 14:55 441K
20260416T12Z_MSC_RDPS_DewPointDepression_IsbL-0985_RLatLon0.09_PT052H.grib2 2026-04-16 14:55 440K
20260416T12Z_MSC_RDPS_DewPointDepression_IsbL-1000_RLatLon0.09_PT052H.grib2 2026-04-16 14:55 438K
20260416T12Z_MSC_RDPS_DewPointDepression_IsbL-1015_RLatLon0.09_PT052H.grib2 2026-04-16 14:55 431K
20260416T12Z_MSC_RDPS_DewPoint_AGL-2m_RLatLon0.09_PT052H.grib2 2026-04-16 14:55 409K
20260416T12Z_MSC_RDPS_DownwardLongwaveRadiationFlux-Accum_Sfc_RLatLon0.09_PT052H.grib2 2026-04-16 14:55 378K
20260416T12Z_MSC_RDPS_DownwardShortwaveRadiationFlux-Accum_NTAtm_RLatLon0.09_PT052H.grib2 2026-04-16 14:55 98K
20260416T12Z_MSC_RDPS_DownwardShortwaveRadiationFlux-Accum_Sfc_RLatLon0.09_PT052H.grib2 2026-04-16 14:55 561K
20260416T12Z_MSC_RDPS_FreezingRain-Accum1h_Sfc_RLatLon0.09_PT052H.grib2 2026-04-16 14:55 17K
20260416T12Z_MSC_RDPS_FreezingRain-Accum_Sfc_RLatLon0.09_PT052H.grib2 2026-04-16 14:55 139K
20260416T12Z_MSC_RDPS_GeopotentialHeight_IsbL-0001_RLatLon0.09_PT052H.grib2 2026-04-16 14:55 210K
20260416T12Z_MSC_RDPS_GeopotentialHeight_IsbL-0005_RLatLon0.09_PT052H.grib2 2026-04-16 14:55 235K
20260416T12Z_MSC_RDPS_GeopotentialHeight_IsbL-0010_RLatLon0.09_PT052H.grib2 2026-04-16 14:55 309K
20260416T12Z_MSC_RDPS_GeopotentialHeight_IsbL-0020_RLatLon0.09_PT052H.grib2 2026-04-16 14:55 337K
20260416T12Z_MSC_RDPS_GeopotentialHeight_IsbL-0030_RLatLon0.09_PT052H.grib2 2026-04-16 14:55 339K
20260416T12Z_MSC_RDPS_GeopotentialHeight_IsbL-0050_RLatLon0.09_PT052H.grib2 2026-04-16 14:55 310K
20260416T12Z_MSC_RDPS_GeopotentialHeight_IsbL-0100_RLatLon0.09_PT052H.grib2 2026-04-16 14:55 284K
20260416T12Z_MSC_RDPS_GeopotentialHeight_IsbL-0150_RLatLon0.09_PT052H.grib2 2026-04-16 14:55 258K
20260416T12Z_MSC_RDPS_GeopotentialHeight_IsbL-0175_RLatLon0.09_PT052H.grib2 2026-04-16 14:55 260K
20260416T12Z_MSC_RDPS_GeopotentialHeight_IsbL-0200_RLatLon0.09_PT052H.grib2 2026-04-16 14:55 262K
20260416T12Z_MSC_RDPS_GeopotentialHeight_IsbL-0225_RLatLon0.09_PT052H.grib2 2026-04-16 14:55 264K
20260416T12Z_MSC_RDPS_GeopotentialHeight_IsbL-0250_RLatLon0.09_PT052H.grib2 2026-04-16 14:55 264K
20260416T12Z_MSC_RDPS_GeopotentialHeight_IsbL-0275_RLatLon0.09_PT052H.grib2 2026-04-16 14:55 263K
20260416T12Z_MSC_RDPS_GeopotentialHeight_IsbL-0300_RLatLon0.09_PT052H.grib2 2026-04-16 14:55 262K
20260416T12Z_MSC_RDPS_GeopotentialHeight_IsbL-0350_RLatLon0.09_PT052H.grib2 2026-04-16 14:55 227K
20260416T12Z_MSC_RDPS_GeopotentialHeight_IsbL-0400_RLatLon0.09_PT052H.grib2 2026-04-16 14:55 224K
20260416T12Z_MSC_RDPS_GeopotentialHeight_IsbL-0450_RLatLon0.09_PT052H.grib2 2026-04-16 14:55 292K
20260416T12Z_MSC_RDPS_GeopotentialHeight_IsbL-0500_RLatLon0.09_PT052H.grib2 2026-04-16 14:55 286K
20260416T12Z_MSC_RDPS_GeopotentialHeight_IsbL-0550_RLatLon0.09_PT052H.grib2 2026-04-16 14:55 282K
20260416T12Z_MSC_RDPS_GeopotentialHeight_IsbL-0600_RLatLon0.09_PT052H.grib2 2026-04-16 14:55 279K
20260416T12Z_MSC_RDPS_GeopotentialHeight_IsbL-0650_RLatLon0.09_PT052H.grib2 2026-04-16 14:55 276K
20260416T12Z_MSC_RDPS_GeopotentialHeight_IsbL-0700_RLatLon0.09_PT052H.grib2 2026-04-16 14:55 275K
20260416T12Z_MSC_RDPS_GeopotentialHeight_IsbL-0750_RLatLon0.09_PT052H.grib2 2026-04-16 14:55 251K
20260416T12Z_MSC_RDPS_GeopotentialHeight_IsbL-0800_RLatLon0.09_PT052H.grib2 2026-04-16 14:55 261K
20260416T12Z_MSC_RDPS_GeopotentialHeight_IsbL-0850_RLatLon0.09_PT052H.grib2 2026-04-16 14:55 270K
20260416T12Z_MSC_RDPS_GeopotentialHeight_IsbL-0875_RLatLon0.09_PT052H.grib2 2026-04-16 14:55 274K
20260416T12Z_MSC_RDPS_GeopotentialHeight_IsbL-0900_RLatLon0.09_PT052H.grib2 2026-04-16 14:55 278K
20260416T12Z_MSC_RDPS_GeopotentialHeight_IsbL-0925_RLatLon0.09_PT052H.grib2 2026-04-16 14:55 281K
20260416T12Z_MSC_RDPS_GeopotentialHeight_IsbL-0950_RLatLon0.09_PT052H.grib2 2026-04-16 14:55 283K
20260416T12Z_MSC_RDPS_GeopotentialHeight_IsbL-0970_RLatLon0.09_PT052H.grib2 2026-04-16 14:55 289K
20260416T12Z_MSC_RDPS_GeopotentialHeight_IsbL-0985_RLatLon0.09_PT052H.grib2 2026-04-16 14:55 297K
20260416T12Z_MSC_RDPS_GeopotentialHeight_IsbL-1000_RLatLon0.09_PT052H.grib2 2026-04-16 14:55 307K
20260416T12Z_MSC_RDPS_GeopotentialHeight_IsbL-1015_RLatLon0.09_PT052H.grib2 2026-04-16 14:55 320K
20260416T12Z_MSC_RDPS_Humidex_Sfc_RLatLon0.09_PT052H.grib2 2026-04-16 14:55 2.4M
20260416T12Z_MSC_RDPS_IcePellets-Accum1h_Sfc_RLatLon0.09_PT052H.grib2 2026-04-16 14:55 11K
20260416T12Z_MSC_RDPS_IcePellets-Accum_Sfc_RLatLon0.09_PT052H.grib2 2026-04-16 14:55 52K
20260416T12Z_MSC_RDPS_KIndex_Sfc_RLatLon0.09_PT052H.grib2 2026-04-16 14:55 2.4M
20260416T12Z_MSC_RDPS_LatentHeatNetFlux_Sfc_RLatLon0.09_PT052H.grib2 2026-04-16 14:55 291K
20260416T12Z_MSC_RDPS_LiftedIndex-MU-VT_IsbL-0500_RLatLon0.09_PT052H.grib2 2026-04-16 14:55 2.4M
20260416T12Z_MSC_RDPS_NetLongwaveRadiationFlux-Accum_Sfc_RLatLon0.09_PT052H.grib2 2026-04-16 14:55 561K
20260416T12Z_MSC_RDPS_NetShortwaveRadiationFlux-Accum_Sfc_RLatLon0.09_PT052H.grib2 2026-04-16 14:55 570K
20260416T12Z_MSC_RDPS_PlanetaryBoundaryLayerHeight_Sfc_RLatLon0.09_PT052H.grib2 2026-04-16 14:55 1.2M
20260416T12Z_MSC_RDPS_Precip-Accum1h_Sfc_RLatLon0.09_PT052H.grib2 2026-04-16 14:55 1.3M
20260416T12Z_MSC_RDPS_Precip-Accum_Sfc_RLatLon0.09_PT052H.grib2 2026-04-16 14:55 2.1M
20260416T12Z_MSC_RDPS_PrecipRate_Sfc_RLatLon0.09_PT052H.grib2 2026-04-16 14:55 228K
20260416T12Z_MSC_RDPS_PrecipType-Instant_Sfc_RLatLon0.09_PT052H.grib2 2026-04-16 14:55 547K
20260416T12Z_MSC_RDPS_Pressure-Trend3h_Sfc_RLatLon0.09_PT052H.grib2 2026-04-16 14:55 1.2M
20260416T12Z_MSC_RDPS_Pressure_MSL_RLatLon0.09_PT052H.grib2 2026-04-16 14:55 332K
20260416T12Z_MSC_RDPS_Pressure_PVU-1.5_RLatLon0.09_PT052H.grib2 2026-04-16 14:55 2.3M
20260416T12Z_MSC_RDPS_Pressure_PVU-1_RLatLon0.09_PT052H.grib2 2026-04-16 14:55 2.4M
20260416T12Z_MSC_RDPS_Pressure_PVU-2_RLatLon0.09_PT052H.grib2 2026-04-16 14:55 2.4M
20260416T12Z_MSC_RDPS_Pressure_Sfc_RLatLon0.09_PT052H.grib2 2026-04-16 14:55 500K
20260416T12Z_MSC_RDPS_RadiativeTemp_Sfc_RLatLon0.09_PT052H.grib2 2026-04-16 14:55 326K
20260416T12Z_MSC_RDPS_Rain-Accum1h_Sfc_RLatLon0.09_PT052H.grib2 2026-04-16 14:55 663K
20260416T12Z_MSC_RDPS_Rain-Accum_Sfc_RLatLon0.09_PT052H.grib2 2026-04-16 14:55 1.6M
20260416T12Z_MSC_RDPS_RelativeHumidity_AGL-2m_RLatLon0.09_PT052H.grib2 2026-04-16 14:55 1.0M
20260416T12Z_MSC_RDPS_RelativeHumidity_IsbL-0010_RLatLon0.09_PT052H.grib2 2026-04-16 14:55 434K
20260416T12Z_MSC_RDPS_RelativeHumidity_IsbL-0020_RLatLon0.09_PT052H.grib2 2026-04-16 14:55 537K
20260416T12Z_MSC_RDPS_RelativeHumidity_IsbL-0030_RLatLon0.09_PT052H.grib2 2026-04-16 14:55 356K
20260416T12Z_MSC_RDPS_RelativeHumidity_IsbL-0050_RLatLon0.09_PT052H.grib2 2026-04-16 14:55 337K
20260416T12Z_MSC_RDPS_RelativeHumidity_IsbL-0100_RLatLon0.09_PT052H.grib2 2026-04-16 14:55 362K
20260416T12Z_MSC_RDPS_RelativeHumidity_IsbL-0150_RLatLon0.09_PT052H.grib2 2026-04-16 14:55 380K
20260416T12Z_MSC_RDPS_RelativeHumidity_IsbL-0175_RLatLon0.09_PT052H.grib2 2026-04-16 14:55 468K
20260416T12Z_MSC_RDPS_RelativeHumidity_IsbL-0200_RLatLon0.09_PT052H.grib2 2026-04-16 14:55 541K
20260416T12Z_MSC_RDPS_RelativeHumidity_IsbL-0225_RLatLon0.09_PT052H.grib2 2026-04-16 14:55 604K
20260416T12Z_MSC_RDPS_RelativeHumidity_IsbL-0250_RLatLon0.09_PT052H.grib2 2026-04-16 14:55 675K
20260416T12Z_MSC_RDPS_RelativeHumidity_IsbL-0275_RLatLon0.09_PT052H.grib2 2026-04-16 14:55 697K
20260416T12Z_MSC_RDPS_RelativeHumidity_IsbL-0300_RLatLon0.09_PT052H.grib2 2026-04-16 14:55 734K
20260416T12Z_MSC_RDPS_RelativeHumidity_IsbL-0350_RLatLon0.09_PT052H.grib2 2026-04-16 14:55 746K
20260416T12Z_MSC_RDPS_RelativeHumidity_IsbL-0400_RLatLon0.09_PT052H.grib2 2026-04-16 14:55 761K
20260416T12Z_MSC_RDPS_RelativeHumidity_IsbL-0450_RLatLon0.09_PT052H.grib2 2026-04-16 14:55 767K
20260416T12Z_MSC_RDPS_RelativeHumidity_IsbL-0500_RLatLon0.09_PT052H.grib2 2026-04-16 14:55 774K
20260416T12Z_MSC_RDPS_RelativeHumidity_IsbL-0550_RLatLon0.09_PT052H.grib2 2026-04-16 14:55 797K
20260416T12Z_MSC_RDPS_RelativeHumidity_IsbL-0600_RLatLon0.09_PT052H.grib2 2026-04-16 14:55 830K
20260416T12Z_MSC_RDPS_RelativeHumidity_IsbL-0650_RLatLon0.09_PT052H.grib2 2026-04-16 14:55 844K
20260416T12Z_MSC_RDPS_RelativeHumidity_IsbL-0700_RLatLon0.09_PT052H.grib2 2026-04-16 14:55 869K
20260416T12Z_MSC_RDPS_RelativeHumidity_IsbL-0750_RLatLon0.09_PT052H.grib2 2026-04-16 14:55 912K
20260416T12Z_MSC_RDPS_RelativeHumidity_IsbL-0800_RLatLon0.09_PT052H.grib2 2026-04-16 14:55 1.0M
20260416T12Z_MSC_RDPS_RelativeHumidity_IsbL-0850_RLatLon0.09_PT052H.grib2 2026-04-16 14:55 1.0M
20260416T12Z_MSC_RDPS_RelativeHumidity_IsbL-0875_RLatLon0.09_PT052H.grib2 2026-04-16 14:55 1.1M
20260416T12Z_MSC_RDPS_RelativeHumidity_IsbL-0900_RLatLon0.09_PT052H.grib2 2026-04-16 14:55 1.1M
20260416T12Z_MSC_RDPS_RelativeHumidity_IsbL-0925_RLatLon0.09_PT052H.grib2 2026-04-16 14:55 1.1M
20260416T12Z_MSC_RDPS_RelativeHumidity_IsbL-0950_RLatLon0.09_PT052H.grib2 2026-04-16 14:55 1.1M
20260416T12Z_MSC_RDPS_RelativeHumidity_IsbL-0970_RLatLon0.09_PT052H.grib2 2026-04-16 14:55 1.1M
20260416T12Z_MSC_RDPS_RelativeHumidity_IsbL-0985_RLatLon0.09_PT052H.grib2 2026-04-16 14:55 1.0M
20260416T12Z_MSC_RDPS_RelativeHumidity_IsbL-1000_RLatLon0.09_PT052H.grib2 2026-04-16 14:55 1.0M
20260416T12Z_MSC_RDPS_RelativeHumidity_IsbL-1015_RLatLon0.09_PT052H.grib2 2026-04-16 14:55 1.0M
20260416T12Z_MSC_RDPS_Runoff-Accum_Sfc_RLatLon0.09_PT052H.grib2 2026-04-16 14:55 53K
20260416T12Z_MSC_RDPS_SWEATIndex_Sfc_RLatLon0.09_PT052H.grib2 2026-04-16 14:55 2.4M
20260416T12Z_MSC_RDPS_SeeingIndex_EAtm_RLatLon0.09_PT052H.grib2 2026-04-16 14:55 1.0M
20260416T12Z_MSC_RDPS_SensibleHeatNetFlux_Sfc_RLatLon0.09_PT052H.grib2 2026-04-16 14:55 362K
20260416T12Z_MSC_RDPS_ShowalterIndex_IsbL-0500_RLatLon0.09_PT052H.grib2 2026-04-16 14:55 2.6M
20260416T12Z_MSC_RDPS_SkyTransparencyIndex_EAtm_RLatLon0.09_PT052H.grib2 2026-04-16 14:55 711K
20260416T12Z_MSC_RDPS_Snow-Accum1h_Sfc_RLatLon0.09_PT052H.grib2 2026-04-16 14:55 547K
20260416T12Z_MSC_RDPS_Snow-Accum_Sfc_RLatLon0.09_PT052H.grib2 2026-04-16 14:55 855K
20260416T12Z_MSC_RDPS_SnowDensity_Sfc_RLatLon0.09_PT052H.grib2 2026-04-16 14:55 182K
20260416T12Z_MSC_RDPS_SnowDepth_Sfc_RLatLon0.09_PT052H.grib2 2026-04-16 14:55 738K
20260416T12Z_MSC_RDPS_SoilTemp_DBS-0to10cm_RLatLon0.09_PT052H.grib2 2026-04-16 14:55 231K
20260416T12Z_MSC_RDPS_SoilTemp_Sfc_RLatLon0.09_PT052H.grib2 2026-04-16 14:55 291K
20260416T12Z_MSC_RDPS_SoilVolumetricIceContent_Sfc_RLatLon0.09_PT052H.grib2 2026-04-16 14:55 180K
20260416T12Z_MSC_RDPS_SoilVolumetricWaterContent_DBS-0to10cm_RLatLon0.09_PT052H.grib2 2026-04-16 14:55 246K
20260416T12Z_MSC_RDPS_SoilVolumetricWaterContent_DBS-0to1cm_RLatLon0.09_PT052H.grib2 2026-04-16 14:55 335K
20260416T12Z_MSC_RDPS_SpecificHumidity_AGL-120m_RLatLon0.09_PT052H.grib2 2026-04-16 14:55 485K
20260416T12Z_MSC_RDPS_SpecificHumidity_AGL-2m_RLatLon0.09_PT052H.grib2 2026-04-16 14:55 652K
20260416T12Z_MSC_RDPS_SpecificHumidity_AGL-40m_RLatLon0.09_PT052H.grib2 2026-04-16 14:55 490K
20260416T12Z_MSC_RDPS_SpecificHumidity_AGL-80m_RLatLon0.09_PT052H.grib2 2026-04-16 14:55 487K
20260416T12Z_MSC_RDPS_SpecificHumidity_IsbL-0001_RLatLon0.09_PT052H.grib2 2026-04-16 14:55 313K
20260416T12Z_MSC_RDPS_SpecificHumidity_IsbL-0005_RLatLon0.09_PT052H.grib2 2026-04-16 14:55 341K
20260416T12Z_MSC_RDPS_SpecificHumidity_IsbL-0010_RLatLon0.09_PT052H.grib2 2026-04-16 14:55 379K
20260416T12Z_MSC_RDPS_SpecificHumidity_IsbL-0020_RLatLon0.09_PT052H.grib2 2026-04-16 14:55 376K
20260416T12Z_MSC_RDPS_SpecificHumidity_IsbL-0030_RLatLon0.09_PT052H.grib2 2026-04-16 14:55 427K
20260416T12Z_MSC_RDPS_SpecificHumidity_IsbL-0050_RLatLon0.09_PT052H.grib2 2026-04-16 14:55 461K
20260416T12Z_MSC_RDPS_SpecificHumidity_IsbL-0100_RLatLon0.09_PT052H.grib2 2026-04-16 14:55 484K
20260416T12Z_MSC_RDPS_SpecificHumidity_IsbL-0150_RLatLon0.09_PT052H.grib2 2026-04-16 14:55 433K
20260416T12Z_MSC_RDPS_SpecificHumidity_IsbL-0175_RLatLon0.09_PT052H.grib2 2026-04-16 14:55 529K
20260416T12Z_MSC_RDPS_SpecificHumidity_IsbL-0200_RLatLon0.09_PT052H.grib2 2026-04-16 14:55 539K
20260416T12Z_MSC_RDPS_SpecificHumidity_IsbL-0225_RLatLon0.09_PT052H.grib2 2026-04-16 14:55 541K
20260416T12Z_MSC_RDPS_SpecificHumidity_IsbL-0250_RLatLon0.09_PT052H.grib2 2026-04-16 14:55 542K
20260416T12Z_MSC_RDPS_SpecificHumidity_IsbL-0275_RLatLon0.09_PT052H.grib2 2026-04-16 14:55 452K
20260416T12Z_MSC_RDPS_SpecificHumidity_IsbL-0300_RLatLon0.09_PT052H.grib2 2026-04-16 14:55 518K
20260416T12Z_MSC_RDPS_SpecificHumidity_IsbL-0350_RLatLon0.09_PT052H.grib2 2026-04-16 14:55 507K
20260416T12Z_MSC_RDPS_SpecificHumidity_IsbL-0400_RLatLon0.09_PT052H.grib2 2026-04-16 14:55 491K
20260416T12Z_MSC_RDPS_SpecificHumidity_IsbL-0450_RLatLon0.09_PT052H.grib2 2026-04-16 14:55 546K
20260416T12Z_MSC_RDPS_SpecificHumidity_IsbL-0500_RLatLon0.09_PT052H.grib2 2026-04-16 14:55 482K
20260416T12Z_MSC_RDPS_SpecificHumidity_IsbL-0550_RLatLon0.09_PT052H.grib2 2026-04-16 14:55 540K
20260416T12Z_MSC_RDPS_SpecificHumidity_IsbL-0600_RLatLon0.09_PT052H.grib2 2026-04-16 14:55 609K
20260416T12Z_MSC_RDPS_SpecificHumidity_IsbL-0650_RLatLon0.09_PT052H.grib2 2026-04-16 14:55 652K
20260416T12Z_MSC_RDPS_SpecificHumidity_IsbL-0700_RLatLon0.09_PT052H.grib2 2026-04-16 14:55 572K
20260416T12Z_MSC_RDPS_SpecificHumidity_IsbL-0750_RLatLon0.09_PT052H.grib2 2026-04-16 14:55 628K
20260416T12Z_MSC_RDPS_SpecificHumidity_IsbL-0800_RLatLon0.09_PT052H.grib2 2026-04-16 14:55 705K
20260416T12Z_MSC_RDPS_SpecificHumidity_IsbL-0850_RLatLon0.09_PT052H.grib2 2026-04-16 14:55 788K
20260416T12Z_MSC_RDPS_SpecificHumidity_IsbL-0875_RLatLon0.09_PT052H.grib2 2026-04-16 14:55 809K
20260416T12Z_MSC_RDPS_SpecificHumidity_IsbL-0900_RLatLon0.09_PT052H.grib2 2026-04-16 14:55 819K
20260416T12Z_MSC_RDPS_SpecificHumidity_IsbL-0925_RLatLon0.09_PT052H.grib2 2026-04-16 14:55 823K
20260416T12Z_MSC_RDPS_SpecificHumidity_IsbL-0950_RLatLon0.09_PT052H.grib2 2026-04-16 14:55 826K
20260416T12Z_MSC_RDPS_SpecificHumidity_IsbL-0970_RLatLon0.09_PT052H.grib2 2026-04-16 14:55 822K
20260416T12Z_MSC_RDPS_SpecificHumidity_IsbL-0985_RLatLon0.09_PT052H.grib2 2026-04-16 14:55 679K
20260416T12Z_MSC_RDPS_SpecificHumidity_IsbL-1000_RLatLon0.09_PT052H.grib2 2026-04-16 14:55 672K
20260416T12Z_MSC_RDPS_SpecificHumidity_IsbL-1015_RLatLon0.09_PT052H.grib2 2026-04-16 14:55 662K
20260416T12Z_MSC_RDPS_SpecificHumidity_Sfc_RLatLon0.09_PT052H.grib2 2026-04-16 14:55 320K
20260416T12Z_MSC_RDPS_StormRelativeHelicity_EtaL-10000_RLatLon0.09_PT052H.grib2 2026-04-16 14:55 1.1M
20260416T12Z_MSC_RDPS_StormSeverityIndex_EtaL-10000_RLatLon0.09_PT052H.grib2 2026-04-16 14:55 1.1M
20260416T12Z_MSC_RDPS_Thickness_IsbL-0850to0700_RLatLon0.09_PT052H.grib2 2026-04-16 14:55 175K
20260416T12Z_MSC_RDPS_Thickness_IsbL-1000to0500_RLatLon0.09_PT052H.grib2 2026-04-16 14:55 200K
20260416T12Z_MSC_RDPS_Thickness_IsbL-1000to0850_RLatLon0.09_PT052H.grib2 2026-04-16 14:55 190K
20260416T12Z_MSC_RDPS_TotalCloudCover_Sfc_RLatLon0.09_PT052H.grib2 2026-04-16 14:55 653K
20260416T12Z_MSC_RDPS_TotalTotalsIndex_Sfc_RLatLon0.09_PT052H.grib2 2026-04-16 14:55 2.4M
20260416T12Z_MSC_RDPS_UVIndex-ClearSky_Sfc_RLatLon0.09_PT052H.grib2 2026-04-16 14:55 195K
20260416T12Z_MSC_RDPS_UVIndex_Sfc_RLatLon0.09_PT052H.grib2 2026-04-16 14:55 451K
20260416T12Z_MSC_RDPS_UpwardLongwaveRadiationFlux_NTAtm_RLatLon0.09_PT052H.grib2 2026-04-16 14:55 482K
20260416T12Z_MSC_RDPS_UpwardShortwaveRadiationFlux_NTAtm_RLatLon0.09_PT052H.grib2 2026-04-16 14:55 502K
20260416T12Z_MSC_RDPS_VerticalVelocity_IsbL-0250_RLatLon0.09_PT052H.grib2 2026-04-16 14:55 548K
20260416T12Z_MSC_RDPS_VerticalVelocity_IsbL-0500_RLatLon0.09_PT052H.grib2 2026-04-16 14:55 668K
20260416T12Z_MSC_RDPS_VerticalVelocity_IsbL-0700_RLatLon0.09_PT052H.grib2 2026-04-16 14:55 577K
20260416T12Z_MSC_RDPS_VerticalVelocity_IsbL-0850_RLatLon0.09_PT052H.grib2 2026-04-16 14:55 689K
20260416T12Z_MSC_RDPS_VerticalWindShear_EtaL-6500_RLatLon0.09_PT052H.grib2 2026-04-16 14:55 1.2M
20260416T12Z_MSC_RDPS_WindChill_Sfc_RLatLon0.09_PT052H.grib2 2026-04-16 14:55 1.3M
20260416T12Z_MSC_RDPS_WindDir_AGL-10m_RLatLon0.09_PT052H.grib2 2026-04-16 14:55 971K
20260416T12Z_MSC_RDPS_WindDir_AGL-120m_RLatLon0.09_PT052H.grib2 2026-04-16 14:55 610K
20260416T12Z_MSC_RDPS_WindDir_AGL-40m_RLatLon0.09_PT052H.grib2 2026-04-16 14:55 636K
20260416T12Z_MSC_RDPS_WindDir_AGL-80m_RLatLon0.09_PT052H.grib2 2026-04-16 14:55 621K
20260416T12Z_MSC_RDPS_WindDir_IsbL-0001_RLatLon0.09_PT052H.grib2 2026-04-16 14:55 276K
20260416T12Z_MSC_RDPS_WindDir_IsbL-0005_RLatLon0.09_PT052H.grib2 2026-04-16 14:55 342K
20260416T12Z_MSC_RDPS_WindDir_IsbL-0010_RLatLon0.09_PT052H.grib2 2026-04-16 14:55 367K
20260416T12Z_MSC_RDPS_WindDir_IsbL-0020_RLatLon0.09_PT052H.grib2 2026-04-16 14:55 384K
20260416T12Z_MSC_RDPS_WindDir_IsbL-0030_RLatLon0.09_PT052H.grib2 2026-04-16 14:55 386K
20260416T12Z_MSC_RDPS_WindDir_IsbL-0050_RLatLon0.09_PT052H.grib2 2026-04-16 14:55 403K
20260416T12Z_MSC_RDPS_WindDir_IsbL-0100_RLatLon0.09_PT052H.grib2 2026-04-16 14:55 385K
20260416T12Z_MSC_RDPS_WindDir_IsbL-0150_RLatLon0.09_PT052H.grib2 2026-04-16 14:55 375K
20260416T12Z_MSC_RDPS_WindDir_IsbL-0175_RLatLon0.09_PT052H.grib2 2026-04-16 14:55 399K
20260416T12Z_MSC_RDPS_WindDir_IsbL-0200_RLatLon0.09_PT052H.grib2 2026-04-16 14:55 419K
20260416T12Z_MSC_RDPS_WindDir_IsbL-0225_RLatLon0.09_PT052H.grib2 2026-04-16 14:55 423K
20260416T12Z_MSC_RDPS_WindDir_IsbL-0250_RLatLon0.09_PT052H.grib2 2026-04-16 14:55 422K
20260416T12Z_MSC_RDPS_WindDir_IsbL-0275_RLatLon0.09_PT052H.grib2 2026-04-16 14:55 440K
20260416T12Z_MSC_RDPS_WindDir_IsbL-0300_RLatLon0.09_PT052H.grib2 2026-04-16 14:55 439K
20260416T12Z_MSC_RDPS_WindDir_IsbL-0350_RLatLon0.09_PT052H.grib2 2026-04-16 14:55 459K
20260416T12Z_MSC_RDPS_WindDir_IsbL-0400_RLatLon0.09_PT052H.grib2 2026-04-16 14:55 474K
20260416T12Z_MSC_RDPS_WindDir_IsbL-0450_RLatLon0.09_PT052H.grib2 2026-04-16 14:55 495K
20260416T12Z_MSC_RDPS_WindDir_IsbL-0500_RLatLon0.09_PT052H.grib2 2026-04-16 14:55 523K
20260416T12Z_MSC_RDPS_WindDir_IsbL-0550_RLatLon0.09_PT052H.grib2 2026-04-16 14:55 548K
20260416T12Z_MSC_RDPS_WindDir_IsbL-0600_RLatLon0.09_PT052H.grib2 2026-04-16 14:55 581K
20260416T12Z_MSC_RDPS_WindDir_IsbL-0650_RLatLon0.09_PT052H.grib2 2026-04-16 14:55 622K
20260416T12Z_MSC_RDPS_WindDir_IsbL-0700_RLatLon0.09_PT052H.grib2 2026-04-16 14:55 672K
20260416T12Z_MSC_RDPS_WindDir_IsbL-0750_RLatLon0.09_PT052H.grib2 2026-04-16 14:55 717K
20260416T12Z_MSC_RDPS_WindDir_IsbL-0800_RLatLon0.09_PT052H.grib2 2026-04-16 14:55 779K
20260416T12Z_MSC_RDPS_WindDir_IsbL-0850_RLatLon0.09_PT052H.grib2 2026-04-16 14:55 850K
20260416T12Z_MSC_RDPS_WindDir_IsbL-0875_RLatLon0.09_PT052H.grib2 2026-04-16 14:55 879K
20260416T12Z_MSC_RDPS_WindDir_IsbL-0900_RLatLon0.09_PT052H.grib2 2026-04-16 14:55 900K
20260416T12Z_MSC_RDPS_WindDir_IsbL-0925_RLatLon0.09_PT052H.grib2 2026-04-16 14:55 908K
20260416T12Z_MSC_RDPS_WindDir_IsbL-0950_RLatLon0.09_PT052H.grib2 2026-04-16 14:55 907K
20260416T12Z_MSC_RDPS_WindDir_IsbL-0970_RLatLon0.09_PT052H.grib2 2026-04-16 14:55 912K
20260416T12Z_MSC_RDPS_WindDir_IsbL-0985_RLatLon0.09_PT052H.grib2 2026-04-16 14:55 923K
20260416T12Z_MSC_RDPS_WindDir_IsbL-1000_RLatLon0.09_PT052H.grib2 2026-04-16 14:55 939K
20260416T12Z_MSC_RDPS_WindDir_IsbL-1015_RLatLon0.09_PT052H.grib2 2026-04-16 14:55 959K
20260416T12Z_MSC_RDPS_WindGust-Max_AGL-10m_RLatLon0.09_PT052H.grib2 2026-04-16 14:55 960K
20260416T12Z_MSC_RDPS_WindGust-Min_AGL-10m_RLatLon0.09_PT052H.grib2 2026-04-16 14:55 1.0M
20260416T12Z_MSC_RDPS_WindGust_AGL-10m_RLatLon0.09_PT052H.grib2 2026-04-16 14:55 1.0M
20260416T12Z_MSC_RDPS_WindSpeed_AGL-10m_RLatLon0.09_PT052H.grib2 2026-04-16 14:55 855K
20260416T12Z_MSC_RDPS_WindSpeed_AGL-120m_RLatLon0.09_PT052H.grib2 2026-04-16 14:55 546K
20260416T12Z_MSC_RDPS_WindSpeed_AGL-40m_RLatLon0.09_PT052H.grib2 2026-04-16 14:55 549K
20260416T12Z_MSC_RDPS_WindSpeed_AGL-80m_RLatLon0.09_PT052H.grib2 2026-04-16 14:55 546K
20260416T12Z_MSC_RDPS_WindSpeed_IsbL-0001_RLatLon0.09_PT052H.grib2 2026-04-16 14:55 253K
20260416T12Z_MSC_RDPS_WindSpeed_IsbL-0005_RLatLon0.09_PT052H.grib2 2026-04-16 14:55 339K
20260416T12Z_MSC_RDPS_WindSpeed_IsbL-0010_RLatLon0.09_PT052H.grib2 2026-04-16 14:55 351K
20260416T12Z_MSC_RDPS_WindSpeed_IsbL-0020_RLatLon0.09_PT052H.grib2 2026-04-16 14:55 331K
20260416T12Z_MSC_RDPS_WindSpeed_IsbL-0030_RLatLon0.09_PT052H.grib2 2026-04-16 14:55 330K
20260416T12Z_MSC_RDPS_WindSpeed_IsbL-0050_RLatLon0.09_PT052H.grib2 2026-04-16 14:55 366K
20260416T12Z_MSC_RDPS_WindSpeed_IsbL-0100_RLatLon0.09_PT052H.grib2 2026-04-16 14:55 478K
20260416T12Z_MSC_RDPS_WindSpeed_IsbL-0150_RLatLon0.09_PT052H.grib2 2026-04-16 14:55 363K
20260416T12Z_MSC_RDPS_WindSpeed_IsbL-0175_RLatLon0.09_PT052H.grib2 2026-04-16 14:55 391K
20260416T12Z_MSC_RDPS_WindSpeed_IsbL-0200_RLatLon0.09_PT052H.grib2 2026-04-16 14:55 430K
20260416T12Z_MSC_RDPS_WindSpeed_IsbL-0225_RLatLon0.09_PT052H.grib2 2026-04-16 14:55 439K
20260416T12Z_MSC_RDPS_WindSpeed_IsbL-0250_RLatLon0.09_PT052H.grib2 2026-04-16 14:55 443K
20260416T12Z_MSC_RDPS_WindSpeed_IsbL-0275_RLatLon0.09_PT052H.grib2 2026-04-16 14:55 458K
20260416T12Z_MSC_RDPS_WindSpeed_IsbL-0300_RLatLon0.09_PT052H.grib2 2026-04-16 14:55 454K
20260416T12Z_MSC_RDPS_WindSpeed_IsbL-0350_RLatLon0.09_PT052H.grib2 2026-04-16 14:55 462K
20260416T12Z_MSC_RDPS_WindSpeed_IsbL-0400_RLatLon0.09_PT052H.grib2 2026-04-16 14:55 465K
20260416T12Z_MSC_RDPS_WindSpeed_IsbL-0450_RLatLon0.09_PT052H.grib2 2026-04-16 14:55 466K
20260416T12Z_MSC_RDPS_WindSpeed_IsbL-0500_RLatLon0.09_PT052H.grib2 2026-04-16 14:55 466K
20260416T12Z_MSC_RDPS_WindSpeed_IsbL-0550_RLatLon0.09_PT052H.grib2 2026-04-16 14:55 449K
20260416T12Z_MSC_RDPS_WindSpeed_IsbL-0600_RLatLon0.09_PT052H.grib2 2026-04-16 14:55 457K
20260416T12Z_MSC_RDPS_WindSpeed_IsbL-0650_RLatLon0.09_PT052H.grib2 2026-04-16 14:55 597K
20260416T12Z_MSC_RDPS_WindSpeed_IsbL-0700_RLatLon0.09_PT052H.grib2 2026-04-16 14:55 622K
20260416T12Z_MSC_RDPS_WindSpeed_IsbL-0750_RLatLon0.09_PT052H.grib2 2026-04-16 14:55 652K
20260416T12Z_MSC_RDPS_WindSpeed_IsbL-0800_RLatLon0.09_PT052H.grib2 2026-04-16 14:55 705K
20260416T12Z_MSC_RDPS_WindSpeed_IsbL-0850_RLatLon0.09_PT052H.grib2 2026-04-16 14:55 771K
20260416T12Z_MSC_RDPS_WindSpeed_IsbL-0875_RLatLon0.09_PT052H.grib2 2026-04-16 14:55 794K
20260416T12Z_MSC_RDPS_WindSpeed_IsbL-0900_RLatLon0.09_PT052H.grib2 2026-04-16 14:55 812K
20260416T12Z_MSC_RDPS_WindSpeed_IsbL-0925_RLatLon0.09_PT052H.grib2 2026-04-16 14:55 869K
20260416T12Z_MSC_RDPS_WindSpeed_IsbL-0950_RLatLon0.09_PT052H.grib2 2026-04-16 14:55 868K
20260416T12Z_MSC_RDPS_WindSpeed_IsbL-0970_RLatLon0.09_PT052H.grib2 2026-04-16 14:55 867K
20260416T12Z_MSC_RDPS_WindSpeed_IsbL-0985_RLatLon0.09_PT052H.grib2 2026-04-16 14:55 861K
20260416T12Z_MSC_RDPS_WindSpeed_IsbL-1000_RLatLon0.09_PT052H.grib2 2026-04-16 14:55 861K
20260416T12Z_MSC_RDPS_WindSpeed_IsbL-1015_RLatLon0.09_PT052H.grib2 2026-04-16 14:55 854K
20260416T12Z_MSC_RDPS_WindU_AGL-10m_RLatLon0.09_PT052H.grib2 2026-04-16 14:55 441K
20260416T12Z_MSC_RDPS_WindU_AGL-120m_RLatLon0.09_PT052H.grib2 2026-04-16 14:55 423K
20260416T12Z_MSC_RDPS_WindU_AGL-40m_RLatLon0.09_PT052H.grib2 2026-04-16 14:55 427K
20260416T12Z_MSC_RDPS_WindU_AGL-80m_RLatLon0.09_PT052H.grib2 2026-04-16 14:55 424K
20260416T12Z_MSC_RDPS_WindU_IsbL-0001_RLatLon0.09_PT052H.grib2 2026-04-16 14:55 293K
20260416T12Z_MSC_RDPS_WindU_IsbL-0005_RLatLon0.09_PT052H.grib2 2026-04-16 14:55 305K
20260416T12Z_MSC_RDPS_WindU_IsbL-0010_RLatLon0.09_PT052H.grib2 2026-04-16 14:55 315K
20260416T12Z_MSC_RDPS_WindU_IsbL-0020_RLatLon0.09_PT052H.grib2 2026-04-16 14:55 332K
20260416T12Z_MSC_RDPS_WindU_IsbL-0030_RLatLon0.09_PT052H.grib2 2026-04-16 14:55 257K
20260416T12Z_MSC_RDPS_WindU_IsbL-0050_RLatLon0.09_PT052H.grib2 2026-04-16 14:55 361K
20260416T12Z_MSC_RDPS_WindU_IsbL-0100_RLatLon0.09_PT052H.grib2 2026-04-16 14:55 335K
20260416T12Z_MSC_RDPS_WindU_IsbL-0150_RLatLon0.09_PT052H.grib2 2026-04-16 14:55 380K
20260416T12Z_MSC_RDPS_WindU_IsbL-0175_RLatLon0.09_PT052H.grib2 2026-04-16 14:55 407K
20260416T12Z_MSC_RDPS_WindU_IsbL-0200_RLatLon0.09_PT052H.grib2 2026-04-16 14:55 425K
20260416T12Z_MSC_RDPS_WindU_IsbL-0225_RLatLon0.09_PT052H.grib2 2026-04-16 14:55 432K
20260416T12Z_MSC_RDPS_WindU_IsbL-0250_RLatLon0.09_PT052H.grib2 2026-04-16 14:55 334K
20260416T12Z_MSC_RDPS_WindU_IsbL-0275_RLatLon0.09_PT052H.grib2 2026-04-16 14:55 347K
20260416T12Z_MSC_RDPS_WindU_IsbL-0300_RLatLon0.09_PT052H.grib2 2026-04-16 14:55 343K
20260416T12Z_MSC_RDPS_WindU_IsbL-0350_RLatLon0.09_PT052H.grib2 2026-04-16 14:55 348K
20260416T12Z_MSC_RDPS_WindU_IsbL-0400_RLatLon0.09_PT052H.grib2 2026-04-16 14:55 351K
20260416T12Z_MSC_RDPS_WindU_IsbL-0450_RLatLon0.09_PT052H.grib2 2026-04-16 14:55 353K
20260416T12Z_MSC_RDPS_WindU_IsbL-0500_RLatLon0.09_PT052H.grib2 2026-04-16 14:55 455K
20260416T12Z_MSC_RDPS_WindU_IsbL-0550_RLatLon0.09_PT052H.grib2 2026-04-16 14:55 457K
20260416T12Z_MSC_RDPS_WindU_IsbL-0600_RLatLon0.09_PT052H.grib2 2026-04-16 14:55 465K
20260416T12Z_MSC_RDPS_WindU_IsbL-0650_RLatLon0.09_PT052H.grib2 2026-04-16 14:55 483K
20260416T12Z_MSC_RDPS_WindU_IsbL-0700_RLatLon0.09_PT052H.grib2 2026-04-16 14:55 505K
20260416T12Z_MSC_RDPS_WindU_IsbL-0750_RLatLon0.09_PT052H.grib2 2026-04-16 14:55 532K
20260416T12Z_MSC_RDPS_WindU_IsbL-0800_RLatLon0.09_PT052H.grib2 2026-04-16 14:55 578K
20260416T12Z_MSC_RDPS_WindU_IsbL-0850_RLatLon0.09_PT052H.grib2 2026-04-16 14:55 633K
20260416T12Z_MSC_RDPS_WindU_IsbL-0875_RLatLon0.09_PT052H.grib2 2026-04-16 14:55 651K
20260416T12Z_MSC_RDPS_WindU_IsbL-0900_RLatLon0.09_PT052H.grib2 2026-04-16 14:55 663K
20260416T12Z_MSC_RDPS_WindU_IsbL-0925_RLatLon0.09_PT052H.grib2 2026-04-16 14:55 670K
20260416T12Z_MSC_RDPS_WindU_IsbL-0950_RLatLon0.09_PT052H.grib2 2026-04-16 14:55 661K
20260416T12Z_MSC_RDPS_WindU_IsbL-0970_RLatLon0.09_PT052H.grib2 2026-04-16 14:55 660K
20260416T12Z_MSC_RDPS_WindU_IsbL-0985_RLatLon0.09_PT052H.grib2 2026-04-16 14:55 659K
20260416T12Z_MSC_RDPS_WindU_IsbL-1000_RLatLon0.09_PT052H.grib2 2026-04-16 14:55 801K
20260416T12Z_MSC_RDPS_WindU_IsbL-1015_RLatLon0.09_PT052H.grib2 2026-04-16 14:55 796K
20260416T12Z_MSC_RDPS_WindV_AGL-10m_RLatLon0.09_PT052H.grib2 2026-04-16 14:55 438K
20260416T12Z_MSC_RDPS_WindV_AGL-120m_RLatLon0.09_PT052H.grib2 2026-04-16 14:55 422K
20260416T12Z_MSC_RDPS_WindV_AGL-40m_RLatLon0.09_PT052H.grib2 2026-04-16 14:55 541K
20260416T12Z_MSC_RDPS_WindV_AGL-80m_RLatLon0.09_PT052H.grib2 2026-04-16 14:55 423K
20260416T12Z_MSC_RDPS_WindV_IsbL-0001_RLatLon0.09_PT052H.grib2 2026-04-16 14:55 268K
20260416T12Z_MSC_RDPS_WindV_IsbL-0005_RLatLon0.09_PT052H.grib2 2026-04-16 14:55 304K
20260416T12Z_MSC_RDPS_WindV_IsbL-0010_RLatLon0.09_PT052H.grib2 2026-04-16 14:55 346K
20260416T12Z_MSC_RDPS_WindV_IsbL-0020_RLatLon0.09_PT052H.grib2 2026-04-16 14:55 362K
20260416T12Z_MSC_RDPS_WindV_IsbL-0030_RLatLon0.09_PT052H.grib2 2026-04-16 14:55 363K
20260416T12Z_MSC_RDPS_WindV_IsbL-0050_RLatLon0.09_PT052H.grib2 2026-04-16 14:55 359K
20260416T12Z_MSC_RDPS_WindV_IsbL-0100_RLatLon0.09_PT052H.grib2 2026-04-16 14:55 423K
20260416T12Z_MSC_RDPS_WindV_IsbL-0150_RLatLon0.09_PT052H.grib2 2026-04-16 14:55 378K
20260416T12Z_MSC_RDPS_WindV_IsbL-0175_RLatLon0.09_PT052H.grib2 2026-04-16 14:55 405K
20260416T12Z_MSC_RDPS_WindV_IsbL-0200_RLatLon0.09_PT052H.grib2 2026-04-16 14:55 424K
20260416T12Z_MSC_RDPS_WindV_IsbL-0225_RLatLon0.09_PT052H.grib2 2026-04-16 14:55 334K
20260416T12Z_MSC_RDPS_WindV_IsbL-0250_RLatLon0.09_PT052H.grib2 2026-04-16 14:55 335K
20260416T12Z_MSC_RDPS_WindV_IsbL-0275_RLatLon0.09_PT052H.grib2 2026-04-16 14:55 348K
20260416T12Z_MSC_RDPS_WindV_IsbL-0300_RLatLon0.09_PT052H.grib2 2026-04-16 14:55 343K
20260416T12Z_MSC_RDPS_WindV_IsbL-0350_RLatLon0.09_PT052H.grib2 2026-04-16 14:55 349K
20260416T12Z_MSC_RDPS_WindV_IsbL-0400_RLatLon0.09_PT052H.grib2 2026-04-16 14:55 349K
20260416T12Z_MSC_RDPS_WindV_IsbL-0450_RLatLon0.09_PT052H.grib2 2026-04-16 14:55 350K
20260416T12Z_MSC_RDPS_WindV_IsbL-0500_RLatLon0.09_PT052H.grib2 2026-04-16 14:55 351K
20260416T12Z_MSC_RDPS_WindV_IsbL-0550_RLatLon0.09_PT052H.grib2 2026-04-16 14:55 453K
20260416T12Z_MSC_RDPS_WindV_IsbL-0600_RLatLon0.09_PT052H.grib2 2026-04-16 14:55 461K
20260416T12Z_MSC_RDPS_WindV_IsbL-0650_RLatLon0.09_PT052H.grib2 2026-04-16 14:55 480K
20260416T12Z_MSC_RDPS_WindV_IsbL-0700_RLatLon0.09_PT052H.grib2 2026-04-16 14:55 502K
20260416T12Z_MSC_RDPS_WindV_IsbL-0750_RLatLon0.09_PT052H.grib2 2026-04-16 14:55 528K
20260416T12Z_MSC_RDPS_WindV_IsbL-0800_RLatLon0.09_PT052H.grib2 2026-04-16 14:55 574K
20260416T12Z_MSC_RDPS_WindV_IsbL-0850_RLatLon0.09_PT052H.grib2 2026-04-16 14:55 630K
20260416T12Z_MSC_RDPS_WindV_IsbL-0875_RLatLon0.09_PT052H.grib2 2026-04-16 14:55 650K
20260416T12Z_MSC_RDPS_WindV_IsbL-0900_RLatLon0.09_PT052H.grib2 2026-04-16 14:55 663K
20260416T12Z_MSC_RDPS_WindV_IsbL-0925_RLatLon0.09_PT052H.grib2 2026-04-16 14:55 663K
20260416T12Z_MSC_RDPS_WindV_IsbL-0950_RLatLon0.09_PT052H.grib2 2026-04-16 14:55 659K
20260416T12Z_MSC_RDPS_WindV_IsbL-0970_RLatLon0.09_PT052H.grib2 2026-04-16 14:55 656K
20260416T12Z_MSC_RDPS_WindV_IsbL-0985_RLatLon0.09_PT052H.grib2 2026-04-16 14:55 654K
20260416T12Z_MSC_RDPS_WindV_IsbL-1000_RLatLon0.09_PT052H.grib2 2026-04-16 14:55 793K
20260416T12Z_MSC_RDPS_WindV_IsbL-1015_RLatLon0.09_PT052H.grib2 2026-04-16 14:55 789K